Location: Izdebno
(52.6670°N, 16.2170°E)
Time: 11:36:40
(UTC+01:00)

Transit 2A - Pass Details

Date: 01 February 2023
Orbit: 591 x 964 km, 66.7° (Epoch: 21 March)

Event Time Altitude Azimuth Distance (km) Brightness Sun altitude
Rises 00:21:21 0° 318° (NW) 3,372 - -54.5°
Reaches altitude 10° 00:23:54 10° 326° (NW) 2,493 - -54.4°
Maximum altitude 00:29:21 39° 35° (NE) 1,342 - -54.3°
Drops below altitude 10° 00:35:09 10° 103° (ESE) 2,665 - -54.2°
Sets 00:37:57 0° 111° (ESE) 3,631 - -54.1°
